Volver al catálogo

STARLINK-36389

ActivoComunicacionesSSO
NORAD 67806·PAYLOAD·🇺🇸 United States

Lanzado Feb 15, 2026 desde Vandenberg Space Force Base

Loading…

Próximos Pases (próximas 24 horas)

TLE

ActualizadoSource: CelesTrak SupGP

Época: Sep 15, 2026, 04:10 UTC

1 67806C 26032K   26258.17409722 -.00058510  00000+0 -18164-2 0  2585
2 67806  97.2853  84.6335 0001743  88.6341  50.3493 15.33466995    13

Sigue STARLINK-36389 en tiempo real con AllMySat

Download on the App Store